STARLINK-1508 (45765 NORAD) Tracking and Keplerian Element Data

This shows tracking and keplerian element data for the satellite.

Feedback or suggestion? Click here.




ElementValue
Catalog45765
NameSTARLINK-1508
Epoch Orbit182
Epoch Day191.91670139
Epoch Year2020
RAAN166.1311
Inclination53.0013
Eccentricity0.0001262
Argument of Perigee91.6766
Mean Anonmoly31.0817
Mean Motion15.62761916
Decay Rate0.00028889
L11 45765U 20038AM 20191.91670139 .00028889 00000-0 32009-3 0 9991
L22 45765 53.0013 166.1311 0001262 91.6766 31.0817 15.62761916 1821

Live tracking and technical data element details for STARLINK-1508 (NORAD 45765). STARLINK-1508 can be tracked NOW for your location showing map with azimuth and elevation plus other details from your city location.

Track the satellite on the map from your city or location and see movement details for azimuth, elevation, latitude, longitude, range, height, and movement on the map or in text.







IsCatalogInMostPopularTable: catalog: 45765, numindb: 6
Update: records affected: 1



GetName: 45765 STARLINK-1508

Hit Count: updated at: Fri, 10 Jul 2020 15:29:46 GMT